GW4835 Weather Reports


Display with metric or nautical units.
time (UTC)temp
F
wind
direction
speed
MPH
gust
MPH
rain 1hr
in
rain 24hr
in
rain mn
in
humidity
%
barometer
mb
20260903001636 84 16 0.0 0.0 0.00 0.00 0.00 75 1019.5
20260903001131 85 16 0.0 0.0 0.00 0.00 0.00 74 1019.5
20260903000626 85 16 0.0 0.0 0.00 0.00 0.00 74 1019.6
20260903000125 85 16 0.0 0.0 0.00 0.00 0.00 73 1019.4
20260902235625 86 14 0.0 0.0 0.00 0.00 0.00 72 1019.5
20260902235121 86 15 0.0 0.0 0.00 0.00 0.00 73 1019.4
20260902234619 87 15 0.0 0.0 0.00 0.00 0.00 70 1019.5
20260902234118 87 14 0.0 0.0 0.00 0.00 0.00 70 1019.2
20260902233614 87 15 0.0 0.0 0.00 0.00 0.00 70 1019.4
20260902233108 88 15 0.0 0.0 0.00 0.00 0.00 67 1019.3
20260902232607 88 12 0.0 1.0 0.00 0.00 0.00 66 1019.5
20260902232101 88 13 1.0 1.0 0.00 0.00 0.00 68 1019.3
20260902231555 89 16 0.0 1.0 0.00 0.00 0.00 70 1019.6
20260902231050 89 20 0.0 1.0 0.00 0.00 0.00 66 1019.4
20260902230544 89 14 0.0 1.0 0.00 0.00 0.00 68 1019.4
20260902230043 90 13 0.0 2.0 0.00 0.00 0.00 64 1019.7
20260902225539 90 18 0.0 1.0 0.00 0.00 0.00 64 1019.5
20260902225038 90 14 1.0 1.0 0.00 0.00 0.00 62 1019.6
20260902224537 90 54 1.0 2.0 0.00 0.00 0.00 62 1019.5
20260902224033 90 18 0.0 1.0 0.00 0.00 0.00 64 1019.6
20260902223529 91 13 0.0 3.0 0.00 0.00 0.00 63 1019.8
20260902223028 91 16 0.0 1.0 0.00 0.00 0.00 62 1019.5
20260902222527 91 19 0.0 0.0 0.00 0.00 0.00 64 1019.5
20260902222027 91 16 0.0 1.0 0.00 0.00 0.00 62 1019.8
20260902221526 91 14 1.0 2.0 0.00 0.00 0.00 61 1019.5
20260902221022 92 16 0.0 1.0 0.00 0.00 0.00 62 1019.7
20260902220517 92 8 0.0 1.0 0.00 0.00 0.00 61 1019.5
20260902220012 92 12 0.0 1.0 0.00 0.00 0.00 60 1019.6
20260902215508 92 13 0.0 3.0 0.00 0.00 0.00 60 1019.7
20260902215003 92 19 0.0 1.0 0.00 0.00 0.00 60 1019.8
20260902214502 91 18 0.0 2.0 0.00 0.00 0.00 63 1019.6
20260902214001 92 57 1.0 2.0 0.00 0.00 0.00 61 1019.8
20260902213458 93 14 4.0 4.0 0.00 0.00 0.00 59 1019.7
20260902212956 93 20 0.0 4.0 0.00 0.00 0.00 59 1019.8
20260902212452 93 12 0.0 2.0 0.00 0.00 0.00 60 1019.6
20260902211943 94 15 0.0 1.0 0.00 0.00 0.00 62 1019.5
20260902211438 94 11 0.0 2.0 0.00 0.00 0.00 57 1019.7
20260902210934 94 8 2.0 4.0 0.00 0.00 0.00 58 1019.9
20260902210434 94 13 1.0 4.0 0.00 0.00 0.00 59 1019.9
20260902205926 95 8 1.0 2.0 0.00 0.00 0.00 55 1019.8
20260902205422 94 20 0.0 2.0 0.00 0.00 0.00 55 1019.8
20260902204918 94 6 1.0 3.0 0.00 0.00 0.00 59 1019.9
20260902204417 95 20 0.0 2.0 0.00 0.00 0.00 57 1020.0
20260902203913 94 0 1.0 2.0 0.00 0.00 0.00 56 1020.0
20260902203407 93 21 1.0 1.0 0.00 0.00 0.00 62 1019.9
20260902202902 94 26 2.0 4.0 0.00 0.00 0.00 55 1019.9
20260902202357 93 8 2.0 2.0 0.00 0.00 0.00 54 1020.0
20260902201854 94 25 1.0 1.0 0.00 0.00 0.00 60 1020.0
20260902201354 95 21 0.0 3.0 0.00 0.00 0.00 54 1020.0
20260902200849 95 2 1.0 1.0 0.00 0.00 0.00 52 1020.1
20260902200344 94 14 0.0 1.0 0.00 0.00 0.00 57 1020.2
20260902195839 96 4 1.0 3.0 0.00 0.00 0.00 50 1020.1
20260902195338 95 18 1.0 2.0 0.00 0.00 0.00 50 1020.3
20260902194834 96 11 1.0 2.0 0.00 0.00 0.00 53 1020.3
20260902194333 96 24 1.0 3.0 0.00 0.00 0.00 53 1020.3
20260902193829 96 20 0.0 2.0 0.00 0.00 0.00 53 1020.3
20260902193325 95 14 2.0 4.0 0.00 0.00 0.00 58 1020.4
20260902192824 95 7 1.0 3.0 0.00 0.00 0.00 54 1020.5
20260902192322 96 356 1.0 2.0 0.00 0.00 0.00 54 1020.7
20260902191821 94 10 0.0 1.0 0.00 0.00 0.00 57 1020.7
20260902191317 92 25 0.0 1.0 0.00 0.00 0.00 58 1020.8
20260902190812 93 21 1.0 2.0 0.00 0.00 0.00 57 1020.9
20260902190311 94 17 3.0 4.0 0.00 0.00 0.00 58 1020.9
20260902185808 93 52 2.0 2.0 0.00 0.00 0.00 57 1021.0
20260902185306 95 56 1.0 4.0 0.00 0.00 0.00 55 1020.9
20260902184759 94 14 0.0 1.0 0.00 0.00 0.00 59 1020.9
20260902184254 93 16 1.0 4.0 0.00 0.00 0.00 58 1021.0
20260902183749 93 7 1.0 3.0 0.00 0.00 0.00 61 1020.9
20260902183246 91 11 1.0 3.0 0.00 0.00 0.00 61 1020.9
20260902182742 92 44 1.0 4.0 0.00 0.00 0.00 64 1021.1
20260902182238 93 14 0.0 1.0 0.00 0.00 0.00 61 1021.0
20260902181734 93 22 0.0 1.0 0.00 0.00 0.00 61 1021.0
20260902181234 92 16 0.0 3.0 0.00 0.00 0.00 63 1021.2
20260902180729 90 11 1.0 2.0 0.00 0.00 0.00 65 1021.2
20260902180224 91 13 1.0 4.0 0.00 0.00 0.00 64 1021.3
20260902175719 91 10 3.0 4.0 0.00 0.00 0.00 62 1021.3
20260902175215 91 8 1.0 1.0 0.00 0.00 0.00 62 1021.5
20260902174711 92 6 3.0 4.0 0.00 0.00 0.00 61 1021.5
20260902174206 92 53 1.0 2.0 0.00 0.00 0.00 60 1021.4
20260902173701 94 9 2.0 3.0 0.00 0.00 0.00 57 1021.5
20260902173156 93 14 1.0 2.0 0.00 0.00 0.00 60 1021.5
20260902172651 91 13 1.0 1.0 0.00 0.00 0.00 61 1021.6
20260902172150 91 23 0.0 2.0 0.00 0.00 0.00 63 1021.7
20260902171645 93 5 2.0 2.0 0.00 0.00 0.00 61 1021.7
20260902171141 92 26 0.0 2.0 0.00 0.00 0.00 61 1021.7
20260902170637 93 26 0.0 1.0 0.00 0.00 0.00 62 1021.6
20260902170132 94 24 1.0 2.0 0.00 0.00 0.00 59 1021.8
20260902165627 94 16 1.0 2.0 0.00 0.00 0.00 61 1021.8
20260902165126 93 20 0.0 2.0 0.00 0.00 0.00 61 1021.6
20260902164622 93 6 3.0 4.0 0.00 0.00 0.00 62 1022.0
20260902164120 94 19 0.0 1.0 0.00 0.00 0.00 58 1021.9
20260902163616 93 18 1.0 2.0 0.00 0.00 0.00 65 1021.9
20260902163114 93 12 1.0 3.0 0.00 0.00 0.00 61 1022.0
20260902162614 93 16 1.0 1.0 0.00 0.00 0.00 61 1021.9
20260902162109 93 22 1.0 2.0 0.00 0.00 0.00 64 1021.9
20260902161604 93 30 1.0 2.0 0.00 0.00 0.00 62 1021.9
20260902161100 93 14 0.0 1.0 0.00 0.00 0.00 64 1022.0
20260902160555 92 15 1.0 2.0 0.00 0.00 0.00 64 1021.9
20260902160051 92 16 1.0 1.0 0.00 0.00 0.00 63 1022.1
20260902155544 92 35 1.0 2.0 0.00 0.00 0.00 64 1022.0
20260902155043 92 15 0.0 1.0 0.00 0.00 0.00 65 1022.0
20260902154538 93 23 1.0 2.0 0.00 0.00 0.00 62 1022.4
20260902154038 92 33 1.0 1.0 0.00 0.00 0.00 66 1022.3
20260902153537 91 9 2.0 2.0 0.00 0.00 0.00 66 1022.1
20260902153033 91 23 0.0 2.0 0.00 0.00 0.00 67 1022.4
20260902152529 91 22 0.0 2.0 0.00 0.00 0.00 66 1022.0
20260902152024 90 16 0.0 1.0 0.00 0.00 0.00 68 1022.4
20260902151520 90 16 0.0 2.0 0.00 0.00 0.00 69 1022.4
20260902151019 90 12 2.0 3.0 0.00 0.00 0.00 68 1022.3
20260902150515 90 18 0.0 1.0 0.00 0.00 0.00 72 1022.5
20260902150010 90 346 2.0 3.0 0.00 0.00 0.00 72 1022.5
20260902145505 88 22 0.0 2.0 0.00 0.00 0.00 71 1022.4
20260902145005 88 23 1.0 2.0 0.00 0.00 0.00 73 1022.3
20260902144501 89 13 1.0 2.0 0.00 0.00 0.00 70 1022.4
20260902143956 89 16 1.0 2.0 0.00 0.00 0.00 73 1022.4
20260902143452 88 23 0.0 3.0 0.00 0.00 0.00 74 1022.3
20260902142947 88 14 0.0 1.0 0.00 0.00 0.00 75 1022.5
20260902142442 88 14 0.0 2.0 0.00 0.00 0.00 73 1022.4
20260902141937 88 18 0.0 0.0 0.00 0.00 0.00 71 1022.5
20260902141432 87 18 0.0 1.0 0.00 0.00 0.00 77 1022.4
20260902140932 87 10 1.0 2.0 0.00 0.00 0.00 74 1022.3
20260902140427 86 18 0.0 2.0 0.00 0.00 0.00 74 1022.2
20260902135927 86 10 0.0 0.0 0.00 0.00 0.00 76 1022.2
20260902135423 85 22 0.0 1.0 0.00 0.00 0.00 78 1022.3
20260902134921 84 21 0.0 1.0 0.00 0.00 0.00 77 1022.4
20260902134418 83 22 0.0 1.0 0.00 0.00 0.00 82 1022.3
20260902133913 82 23 0.0 1.0 0.00 0.00 0.00 82 1022.1
20260902133412 81 17 0.0 0.0 0.00 0.00 0.00 85 1022.1
20260902132907 81 17 0.0 1.0 0.00 0.00 0.00 86 1022.4
20260902132403 80 18 0.0 1.0 0.00 0.00 0.00 86 1022.2
20260902131858 80 20 0.0 1.0 0.00 0.00 0.00 87 1022.2
20260902131355 79 20 0.0 0.0 0.00 0.00 0.00 90 1022.1
20260902130853 79 68 0.0 1.0 0.00 0.00 0.00 92 1022.3
20260902130350 78 22 0.0 1.0 0.00 0.00 0.00 90 1022.3
20260902125844 78 16 0.0 0.0 0.00 0.00 0.00 90 1022.1
20260902125341 78 15 0.0 0.0 0.00 0.00 0.00 91 1022.3
20260902124837 78 12 0.0 0.0 0.00 0.00 0.00 91 1022.2
20260902124332 77 17 0.0 0.0 0.00 0.00 0.00 92 1022.2
20260902123827 76 21 0.0 0.0 0.00 0.00 0.00 92 1022.1
20260902123324 76 18 0.0 0.0 0.00 0.00 0.00 93 1022.2
20260902122822 75 13 0.0 1.0 0.00 0.00 0.00 93 1022.0
20260902122318 75 7 0.0 0.0 0.00 0.00 0.00 95 1022.0
20260902121818 74 18 0.0 1.0 0.00 0.00 0.00 96 1022.0
20260902121313 73 20 0.0 0.0 0.00 0.00 0.00 99 1021.9
20260902120808 73 12 0.0 0.0 0.00 0.00 0.00 99 1022.0
20260902120305 72 18 0.0 0.0 0.00 0.00 0.00 99 1022.1
20260902115759 71 15 0.0 0.0 0.00 0.00 0.00 99 1021.8
20260902115255 71 12 0.0 0.0 0.00 0.00 0.00 99 1022.0
20260902114752 71 12 0.0 0.0 0.00 0.00 0.00 99 1021.7
20260902114248 71 13 0.0 0.0 0.00 0.00 0.00 99 1021.8
20260902113747 71 14 0.0 0.0 0.00 0.00 0.00 99 1021.6
20260902113243 71 14 0.0 0.0 0.00 0.00 0.00 99 1021.7
20260902112742 71 16 0.0 0.0 0.00 0.00 0.00 99 1021.7
20260902112240 71 16 0.0 0.0 0.00 0.00 0.00 99 1021.6
20260902111734 70 13 0.0 0.0 0.00 0.00 0.00 99 1021.6
20260902111231 70 11 0.0 1.0 0.00 0.00 0.00 99 1021.4
20260902110726 71 11 0.0 0.0 0.00 0.00 0.00 99 1021.5
20260902110222 71 14 0.0 0.0 0.00 0.00 0.00 99 1021.5
20260902105721 71 14 0.0 0.0 0.00 0.00 0.00 99 1021.5
20260902105217 71 16 0.0 0.0 0.00 0.00 0.00 99 1021.7
20260902104712 71 14 0.0 0.0 0.00 0.00 0.00 99 1021.6
20260902104209 71 14 0.0 0.0 0.00 0.00 0.00 99 1021.4
20260902103707 71 14 0.0 0.0 0.00 0.00 0.00 99 1021.6
20260902103202 71 14 0.0 0.0 0.00 0.00 0.00 99 1021.5
20260902102658 71 14 0.0 0.0 0.00 0.00 0.00 99 1021.4
20260902102155 71 14 0.0 0.0 0.00 0.00 0.00 99 1021.5
20260902101650 71 14 0.0 0.0 0.00 0.00 0.00 99 1021.4
20260902101150 71 14 0.0 0.0 0.00 0.00 0.00 99 1021.5
20260902100644 71 14 0.0 0.0 0.00 0.00 0.00 99 1021.5
20260902100139 71 14 0.0 0.0 0.00 0.00 0.00 99 1021.5
20260902095638 71 14 0.0 0.0 0.00 0.00 0.00 99 1021.3
20260902095138 71 14 0.0 0.0 0.00 0.00 0.00 99 1021.4
20260902094633 71 14 0.0 0.0 0.00 0.00 0.00 99 1021.3
20260902094130 71 14 0.0 0.0 0.00 0.00 0.00 99 1021.5
20260902093629 71 14 0.0 0.0 0.00 0.00 0.00 99 1021.3
20260902093118 71 14 0.0 0.0 0.00 0.00 0.00 99 1021.4
20260902092618 72 14 0.0 0.0 0.00 0.00 0.00 99 1021.4
20260902092113 71 14 0.0 0.0 0.00 0.00 0.00 99 1021.4
20260902091608 72 14 0.0 0.0 0.00 0.00 0.00 99 1021.2
20260902091104 72 14 0.0 0.0 0.00 0.00 0.00 99 1021.3
20260902090600 72 14 0.0 0.0 0.00 0.00 0.00 99 1021.2
20260902090100 72 14 0.0 0.0 0.00 0.00 0.00 99 1021.2
20260902085559 72 14 0.0 0.0 0.00 0.00 0.00 99 1021.3
20260902085055 72 14 0.0 0.0 0.00 0.00 0.00 99 1021.2
20260902084551 72 14 0.0 0.0 0.00 0.00 0.00 99 1021.0
20260902084047 72 14 0.0 0.0 0.00 0.00 0.00 99 1021.0
20260902083542 72 14 0.0 0.0 0.00 0.00 0.00 99 1020.9
20260902083041 72 14 0.0 0.0 0.00 0.00 0.00 99 1021.0
20260902082537 72 14 0.0 0.0 0.00 0.00 0.00 99 1020.9
20260902082033 72 14 0.0 0.0 0.00 0.00 0.00 99 1020.7
20260902081530 72 14 0.0 0.0 0.00 0.00 0.00 99 1020.8
20260902081029 72 14 0.0 0.0 0.00 0.00 0.00 99 1020.7
20260902080525 73 14 0.0 0.0 0.00 0.00 0.00 99 1020.8
20260902080022 72 15 0.0 0.0 0.00 0.00 0.00 99 1020.8
20260902075511 73 16 0.0 0.0 0.00 0.00 0.00 99 1020.8
20260902075007 73 16 0.0 0.0 0.00 0.00 0.00 99 1020.8
20260902074502 73 16 0.0 0.0 0.00 0.00 0.00 99 1020.8
20260902074001 73 16 0.0 0.0 0.00 0.00 0.00 99 1020.6
20260902073458 73 16 0.0 0.0 0.00 0.00 0.00 99 1020.7
20260902072954 73 16 0.0 0.0 0.00 0.00 0.00 99 1020.7
20260902072449 73 16 0.0 0.0 0.00 0.00 0.00 99 1020.6
20260902071945 74 16 0.0 0.0 0.00 0.00 0.00 99 1020.6
20260902071445 74 16 0.0 0.0 0.00 0.00 0.00 99 1020.6
20260902070941 73 16 0.0 0.0 0.00 0.00 0.00 99 1020.6
20260902070437 74 16 0.0 0.0 0.00 0.00 0.00 99 1020.8
20260902065935 74 16 0.0 0.0 0.00 0.00 0.00 99 1020.7
20260902065431 74 15 0.0 0.0 0.00 0.00 0.00 99 1020.8
20260902064926 73 15 0.0 0.0 0.00 0.00 0.00 99 1020.8
20260902064421 73 15 0.0 0.0 0.00 0.00 0.00 99 1020.6
20260902063917 73 15 0.0 0.0 0.00 0.00 0.00 99 1020.5
20260902063417 74 15 0.0 0.0 0.00 0.00 0.00 99 1020.8
20260902062912 74 15 0.0 0.0 0.00 0.00 0.00 99 1020.7
20260902062411 74 15 0.0 0.0 0.00 0.00 0.00 99 1020.7
20260902061911 74 15 0.0 0.0 0.00 0.00 0.00 98 1020.8
20260902061406 74 15 0.0 0.0 0.00 0.00 0.00 98 1020.6
20260902060902 74 15 0.0 0.0 0.00 0.00 0.00 97 1020.8
20260902060358 74 15 0.0 0.0 0.00 0.00 0.00 97 1020.7
20260902055853 75 14 0.0 0.0 0.00 0.00 0.00 96 1020.7
20260902055349 75 15 0.0 0.0 0.00 0.00 0.00 96 1020.8
20260902054845 75 15 0.0 0.0 0.00 0.00 0.00 95 1020.8
20260902054340 75 15 0.0 0.0 0.00 0.00 0.00 94 1020.6
20260902053835 76 15 0.0 0.0 0.00 0.00 0.00 94 1020.7
20260902053330 76 15 0.0 0.0 0.00 0.00 0.00 92 1020.7
20260902052829 76 15 0.0 0.0 0.00 0.00 0.00 92 1020.6
20260902052325 76 15 0.0 0.0 0.00 0.00 0.00 92 1020.8
20260902051820 76 15 0.0 0.0 0.00 0.00 0.00 92 1020.6
20260902051320 77 15 0.0 0.0 0.00 0.00 0.00 91 1020.6
20260902050814 77 16 0.0 0.0 0.00 0.00 0.00 90 1020.6
20260902050314 77 16 0.0 0.0 0.00 0.00 0.00 90 1020.7
20260902045809 78 16 0.0 0.0 0.00 0.00 0.00 89 1020.7
20260902045306 78 16 0.0 0.0 0.00 0.00 0.00 89 1020.7
20260902044801 78 323 0.0 0.0 0.00 0.00 0.00 88 1020.7
20260902044256 79 27 0.0 0.0 0.00 0.00 0.00 87 1020.7
20260902043751 79 22 0.0 1.0 0.00 0.00 0.00 85 1020.6
20260902043247 79 23 0.0 1.0 0.00 0.00 0.00 86 1020.8
20260902042746 78 20 0.0 1.0 0.00 0.00 0.00 86 1020.6
20260902042240 78 36 0.0 1.0 0.00 0.00 0.00 88 1020.7
20260902041736 78 36 0.0 0.0 0.00 0.00 0.00 87 1020.6
20260902041236 78 358 0.0 0.0 0.00 0.00 0.00 89 1020.9
20260902040735 78 16 0.0 0.0 0.00 0.00 0.00 89 1020.7
20260902040231 79 14 0.0 0.0 0.00 0.00 0.00 88 1020.8
20260902035730 80 16 0.0 0.0 0.00 0.00 0.00 86 1020.9
20260902035225 80 18 0.0 0.0 0.00 0.00 0.00 86 1020.7
20260902034723 80 337 0.0 1.0 0.00 0.00 0.00 85 1020.9
20260902034218 80 22 0.0 1.0 0.00 0.00 0.00 84 1020.7
20260902033717 80 22 1.0 1.0 0.00 0.00 0.00 84 1020.8
20260902033212 80 18 0.0 0.0 0.00 0.00 0.00 84 1020.9
20260902032711 80 19 0.0 1.0 0.00 0.00 0.00 83 1020.7
20260902032206 80 21 0.0 1.0 0.00 0.00 0.00 84 1020.8
20260902031705 80 23 1.0 1.0 0.00 0.00 0.00 82 1020.8
20260902031201 80 21 0.0 1.0 0.00 0.00 0.00 83 1020.8
20260902030656 80 20 0.0 1.0 0.00 0.00 0.00 83 1020.6
20260902030155 80 20 0.0 1.0 0.00 0.00 0.00 83 1020.6
20260902025650 80 18 0.0 1.0 0.00 0.00 0.00 85 1020.7
20260902025145 80 18 0.0 1.0 0.00 0.00 0.00 84 1020.6
20260902024641 80 17 0.0 0.0 0.00 0.00 0.00 88 1020.7
20260902024136 80 15 0.0 0.0 0.00 0.00 0.00 82 1020.9
20260902023631 81 15 0.0 0.0 0.00 0.00 0.00 81 1020.7
20260902023126 81 15 0.0 0.0 0.00 0.00 0.00 82 1020.8
20260902022625 82 88 0.0 0.0 0.00 0.00 0.00 80 1020.7
20260902022121 82 21 0.0 1.0 0.00 0.00 0.00 80 1020.7
20260902021617 83 22 0.0 1.0 0.00 0.00 0.00 76 1020.7
20260902021112 83 23 1.0 2.0 0.00 0.00 0.00 77 1020.7
20260902020608 83 24 1.0 1.0 0.00 0.00 0.00 77 1020.5
20260902020103 83 27 1.0 1.0 0.00 0.00 0.00 76 1020.7
20260902015559 83 23 1.0 1.0 0.00 0.00 0.00 77 1020.4
20260902015054 83 30 1.0 1.0 0.00 0.00 0.00 75 1020.7
20260902014550 83 28 1.0 1.0 0.00 0.00 0.00 76 1020.6
20260902014045 83 26 1.0 1.0 0.00 0.00 0.00 75 1020.7
20260902013545 83 24 1.0 1.0 0.00 0.00 0.00 75 1020.6
20260902013041 83 50 1.0 1.0 0.00 0.00 0.00 76 1020.6
20260902012536 83 28 1.0 1.0 0.00 0.00 0.00 76 1020.5
20260902012031 83 23 0.0 1.0 0.00 0.00 0.00 76 1020.5
20260902011527 84 20 0.0 0.0 0.00 0.00 0.00 77 1020.4
20260902011026 84 23 1.0 1.0 0.00 0.00 0.00 75 1020.4
20260902010526 84 22 0.0 1.0 0.00 0.00 0.00 79 1020.2
20260902010022 84 19 0.0 1.0 0.00 0.00 0.00 74 1020.3
20260902005519 84 24 1.0 1.0 0.00 0.00 0.00 74 1020.3
20260902005016 84 20 0.0 1.0 0.00 0.00 0.00 77 1020.1
20260902004515 84 22 0.0 1.0 0.00 0.00 0.00 76 1020.2
20260902004011 84 25 1.0 1.0 0.00 0.00 0.00 75 1020.3
20260902003506 84 20 1.0 1.0 0.00 0.00 0.00 76 1020.1
20260902003001 83 18 0.0 0.0 0.00 0.00 0.00 77 1020.1
20260902002456 83 18 0.0 1.0 0.00 0.00 0.00 76 1020.1
20260902001955 83 21 0.0 1.0 0.00 0.00 0.00 77 1020.2